| time (UTC) | temp C | wind direction | speed KPH | gust KPH | rain 1hr cm | rain 24hr cm | rain mn cm | humidity % | barometer mb |
| 20260506091541 | 19 | 71 | 3.2 | 11.3 | 0.00 | 0.00 | 0.00 | 1 | 1013.2 |
| 20260506090038 | 19 | 55 | 3.2 | 9.7 | 0.00 | 0.00 | 0.00 | 1 | 1013.0 |
| 20260506084539 | 19 | 86 | 3.2 | 11.3 | 0.00 | 0.00 | 0.00 | 1 | 1013.0 |
| 20260506083029 | 20 | 42 | 0.0 | 8.0 | 0.00 | 0.00 | 0.00 | 1 | 1013.0 |
| 20260506081524 | 20 | 82 | 3.2 | 8.0 | 0.00 | 0.00 | 0.00 | 1 | 1012.9 |
| 20260506073011 | 20 | 47 | 3.2 | 11.3 | 0.00 | 0.00 | 0.00 | 1 | 1013.2 |
| 20260506071507 | 20 | 68 | 1.6 | 4.8 | 0.00 | 0.00 | 0.00 | 1 | 1013.3 |
| 20260506061549 | 20 | 64 | 1.6 | 11.3 | 0.00 | 0.00 | 0.00 | 1 | 1014.0 |
| 20260506044529 | 20 | 44 | 1.6 | 11.3 | 0.00 | 0.00 | 0.00 | 1 | 1014.4 |
| 20260506043019 | 19 | 49 | 1.6 | 11.3 | 0.00 | 0.00 | 0.00 | 1 | 1014.7 |
| 20260506041514 | 18 | 37 | 3.2 | 8.0 | 0.00 | 0.00 | 0.00 | 1 | 1014.7 |
| 20260506040010 | 19 | 82 | 3.2 | 9.7 | 0.00 | 0.00 | 0.00 | 1 | 1014.2 |
| 20260506034506 | 19 | 55 | 3.2 | 8.0 | 0.00 | 0.00 | 0.00 | 1 | 1014.4 |
| 20260506033001 | 19 | 71 | 3.2 | 9.7 | 0.00 | 0.00 | 0.00 | 1 | 1014.6 |
| 20260506031601 | 19 | 62 | 4.8 | 8.0 | 0.00 | 0.00 | 0.00 | 1 | 1014.3 |
| 20260506024557 | 20 | 217 | 0.0 | 3.2 | 0.00 | 0.00 | 0.00 | 1 | 1014.4 |
| 20260506023052 | 20 | 92 | 0.0 | 1.6 | 0.00 | 0.00 | 0.00 | 1 | 1014.3 |
| 20260506021558 | 20 | 79 | 3.2 | 12.9 | 0.00 | 0.00 | 0.00 | 1 | 1014.2 |
| 20260506020050 | 20 | 89 | 4.8 | 9.7 | 0.00 | 0.00 | 0.00 | 1 | 1014.1 |
| 20260506014558 | 20 | 76 | 3.2 | 12.9 | 0.00 | 0.00 | 0.00 | 1 | 1014.3 |
| 20260506013054 | 19 | 79 | 4.8 | 12.9 | 0.00 | 0.00 | 0.00 | 2 | 1014.2 |
| 20260506011548 | 19 | 56 | 3.2 | 11.3 | 0.00 | 0.00 | 0.00 | 10 | 1013.6 |
| 20260506010053 | 19 | 53 | 1.6 | 8.0 | 0.00 | 0.00 | 0.00 | 22 | 1013.9 |
| 20260506004551 | 19 | 80 | 3.2 | 12.9 | 0.00 | 0.00 | 0.00 | 29 | 1014.0 |
| 20260506003047 | 19 | 82 | 6.4 | 9.7 | 0.00 | 0.00 | 0.00 | 33 | 1014.4 |
| 20260506001551 | 18 | 42 | 4.8 | 9.7 | 0.00 | 0.00 | 0.00 | 35 | 1014.6 |
| 20260506000046 | 18 | 63 | 3.2 | 6.4 | 0.00 | 0.00 | 0.00 | 22 | 1014.4 |
| 20260505234546 | 18 | 59 | 0.0 | 6.4 | 0.00 | 0.00 | 0.00 | 4 | 1014.3 |
| 20260505233044 | 17 | 45 | 1.6 | 4.8 | 0.00 | 0.00 | 0.00 | 1 | 1014.4 |
| 20260505231539 | 18 | 134 | 0.0 | 0.0 | 0.00 | 0.00 | 0.00 | 1 | 1014.3 |
| 20260505230045 | 18 | 134 | 0.0 | 1.6 | 0.00 | 0.00 | 0.00 | 1 | 1014.2 |
| 20260505224535 | 18 | 134 | 0.0 | 1.6 | 0.00 | 0.00 | 0.00 | 1 | 1014.3 |
| 20260505223026 | 19 | 134 | 0.0 | 1.6 | 0.00 | 0.00 | 0.00 | 1 | 1014.7 |
| 20260505221522 | 19 | 140 | 0.0 | 1.6 | 0.00 | 0.00 | 0.00 | 1 | 1014.5 |
| 20260505220017 | 19 | 140 | 0.0 | 1.6 | 0.00 | 0.00 | 0.00 | 10 | 1014.2 |
| 20260505214514 | 20 | 140 | 0.0 | 0.0 | 0.00 | 0.00 | 0.00 | 19 | 1014.0 |
| 20260505213009 | 20 | 140 | 0.0 | 0.0 | 0.00 | 0.00 | 0.00 | 29 | 1014.1 |
| 20260505211504 | 20 | 140 | 0.0 | 0.0 | 0.00 | 0.00 | 0.00 | 41 | 1014.3 |
| 20260505210107 | 20 | 140 | 0.0 | 0.0 | 0.00 | 0.00 | 0.00 | 49 | 1014.3 |
| 20260505204556 | 21 | 140 | 0.0 | 0.0 | 0.00 | 0.00 | 0.00 | 52 | 1014.4 |
| 20260505203055 | 21 | 140 | 0.0 | 1.6 | 0.00 | 0.00 | 0.00 | 56 | 1014.3 |
| 20260505201548 | 21 | 140 | 0.0 | 1.6 | 0.00 | 0.00 | 0.00 | 59 | 1014.4 |
| 20260505200042 | 21 | 140 | 0.0 | 3.2 | 0.00 | 0.00 | 0.00 | 59 | 1014.1 |
| 20260505194538 | 21 | 140 | 3.2 | 9.7 | 0.00 | 0.00 | 0.00 | 61 | 1014.0 |
| 20260505193052 | 22 | 166 | 1.6 | 3.2 | 0.00 | 0.00 | 0.00 | 61 | 1014.1 |
| 20260505191534 | 22 | 237 | 0.0 | 1.6 | 0.00 | 0.00 | 0.00 | 61 | 1014.2 |
| 20260505190037 | 21 | 237 | 0.0 | 3.2 | 0.00 | 0.00 | 0.00 | 60 | 1014.4 |
| 20260505184527 | 22 | 250 | 3.2 | 11.3 | 0.00 | 0.00 | 0.00 | 61 | 1014.2 |
| 20260505183021 | 23 | 9 | 0.0 | 9.7 | 0.00 | 0.00 | 0.00 | 60 | 1013.8 |
| 20260505181518 | 22 | 61 | 3.2 | 11.3 | 0.00 | 0.00 | 0.00 | 60 | 1013.5 |
| 20260505180021 | 22 | 84 | 0.0 | 8.0 | 0.00 | 0.00 | 0.00 | 60 | 1013.7 |
| 20260505174514 | 22 | 68 | 1.6 | 8.0 | 0.00 | 0.00 | 0.00 | 61 | 1013.6 |
| 20260505173012 | 21 | 269 | 1.6 | 8.0 | 0.00 | 0.00 | 0.00 | 61 | 1013.9 |
| 20260505171507 | 22 | 254 | 1.6 | 6.4 | 0.00 | 0.00 | 0.00 | 61 | 1014.0 |
| 20260505170003 | 22 | 353 | 0.0 | 1.6 | 0.00 | 0.00 | 0.00 | 56 | 1013.8 |
| 20260505164559 | 22 | 354 | 0.0 | 6.4 | 0.00 | 0.00 | 0.00 | 61 | 1014.1 |
| 20260505163055 | 22 | 40 | 0.0 | 6.4 | 0.00 | 0.00 | 0.00 | 61 | 1014.0 |
| 20260505161551 | 21 | 17 | 0.0 | 3.2 | 0.00 | 0.00 | 0.00 | 60 | 1014.3 |
| 20260505153045 | 21 | 261 | 0.0 | 1.6 | 0.00 | 0.00 | 0.00 | 55 | 1014.9 |
| 20260505151537 | 20 | 261 | 0.0 | 6.4 | 0.00 | 0.00 | 0.00 | 60 | 1015.2 |
| 20260505124554 | 18 | 43 | 0.0 | 1.6 | 0.00 | 0.00 | 0.00 | 31 | 1015.0 |
| 20260505123056 | 17 | 44 | 0.0 | 0.0 | 0.00 | 0.00 | 0.00 | 29 | 1015.0 |
| 20260505121542 | 16 | 44 | 0.0 | 0.0 | 0.00 | 0.00 | 0.00 | 29 | 1014.9 |
| 20260505120051 | 16 | 44 | 0.0 | 0.0 | 0.00 | 0.00 | 0.00 | 29 | 1014.8 |
| 20260505114533 | 16 | 44 | 0.0 | 0.0 | 0.00 | 0.00 | 0.00 | 32 | 1014.8 |
| 20260505113029 | 15 | 44 | 0.0 | 1.6 | 0.00 | 0.00 | 0.00 | 35 | 1014.7 |
| 20260505111530 | 15 | 44 | 0.0 | 1.6 | 0.00 | 0.00 | 0.00 | 34 | 1014.6 |
| 20260505101506 | 13 | 44 | 0.0 | 1.6 | 0.00 | 0.00 | 0.00 | 9 | 1014.1 |
| 20260505100002 | 13 | 44 | 0.0 | 1.6 | 0.00 | 0.00 | 0.00 | 13 | 1013.9 |
| 20260505094558 | 13 | 44 | 0.0 | 1.6 | 0.00 | 0.00 | 0.00 | 20 | 1013.7 |
| 20260505093054 | 13 | 44 | 0.0 | 3.2 | 0.00 | 0.00 | 0.00 | 26 | 1013.5 |